| time (UTC) | temp F | wind direction | speed knots | gust knots | rain 1hr in | rain 24hr in | rain mn in | humidity % | barometer mb |
| 20260901210704 | 77 | 71 | 1.7 | 6.1 | 0.00 | 0.00 | 0.00 | 44 | 1016.2 |
| 20260901204705 | 76 | 53 | 4.3 | 7.8 | 0.00 | 0.00 | 0.00 | 42 | 1016.1 |
| 20260901202704 | 76 | 80 | 2.6 | 4.3 | 0.00 | 0.00 | 0.00 | 43 | 1015.8 |
| 20260901202204 | 76 | 132 | 3.5 | 7.8 | 0.00 | 0.00 | 0.00 | 43 | 1015.8 |
| 20260901200705 | 76 | 57 | 2.6 | 4.3 | 0.00 | 0.00 | 0.00 | 43 | 1015.9 |
| 20260901200205 | 76 | 84 | 2.6 | 6.1 | 0.00 | 0.00 | 0.00 | 43 | 1015.9 |
| 20260901194705 | 76 | 53 | 1.7 | 7.8 | 0.00 | 0.00 | 0.00 | 45 | 1016.0 |
| 20260901194205 | 76 | 54 | 2.6 | 7.0 | 0.00 | 0.00 | 0.00 | 45 | 1016.0 |
| 20260901192705 | 76 | 95 | 2.6 | 6.1 | 0.00 | 0.00 | 0.00 | 44 | 1016.1 |
| 20260901192205 | 76 | 81 | 2.6 | 7.8 | 0.00 | 0.00 | 0.00 | 47 | 1016.1 |
| 20260901190705 | 75 | 147 | 1.7 | 7.0 | 0.00 | 0.00 | 0.00 | 47 | 1016.2 |
| 20260901184705 | 74 | 5 | 1.7 | 4.3 | 0.00 | 0.00 | 0.00 | 54 | 1016.6 |
| 20260901184205 | 74 | 40 | 2.6 | 8.7 | 0.00 | 0.00 | 0.00 | 53 | 1016.6 |
| 20260901182704 | 74 | 36 | 2.6 | 6.1 | 0.00 | 0.00 | 0.00 | 52 | 1016.5 |
| 20260901182204 | 74 | 52 | 2.6 | 8.7 | 0.00 | 0.00 | 0.00 | 53 | 1016.5 |
| 20260901180704 | 74 | 74 | 3.5 | 7.0 | 0.00 | 0.00 | 0.00 | 55 | 1016.3 |
| 20260901174705 | 73 | 89 | 4.3 | 8.7 | 0.00 | 0.00 | 0.00 | 55 | 1016.7 |
| 20260901174204 | 73 | 65 | 2.6 | 8.7 | 0.00 | 0.00 | 0.00 | 57 | 1016.7 |
| 20260901172704 | 73 | 56 | 3.5 | 7.8 | 0.00 | 0.00 | 0.00 | 58 | 1016.7 |
| 20260901172204 | 73 | 94 | 1.7 | 7.0 | 0.00 | 0.00 | 0.00 | 57 | 1016.8 |
| 20260901170705 | 73 | 116 | 2.6 | 6.1 | 0.00 | 0.00 | 0.00 | 55 | 1016.9 |
| 20260901170204 | 73 | 76 | 4.3 | 7.0 | 0.00 | 0.00 | 0.00 | 53 | 1017.0 |
| 20260901164205 | 72 | 109 | 3.5 | 7.8 | 0.00 | 0.00 | 0.00 | 54 | 1017.1 |
| 20260901162704 | 72 | 38 | 4.3 | 10.4 | 0.00 | 0.00 | 0.00 | 54 | 1017.2 |
| 20260901162205 | 71 | 59 | 2.6 | 10.4 | 0.00 | 0.00 | 0.00 | 55 | 1017.2 |
| 20260901160704 | 71 | 20 | 3.5 | 7.0 | 0.00 | 0.00 | 0.00 | 58 | 1017.2 |
| 20260901160204 | 71 | 57 | 4.3 | 7.0 | 0.00 | 0.00 | 0.00 | 57 | 1017.4 |
| 20260901154704 | 72 | 125 | 1.7 | 6.1 | 0.00 | 0.00 | 0.00 | 61 | 1017.4 |
| 20260901154204 | 72 | 65 | 2.6 | 7.0 | 0.00 | 0.00 | 0.00 | 58 | 1017.5 |
| 20260901152704 | 71 | 80 | 2.6 | 6.1 | 0.00 | 0.00 | 0.00 | 63 | 1017.5 |
| 20260901152205 | 70 | 53 | 1.7 | 6.1 | 0.00 | 0.00 | 0.00 | 63 | 1017.6 |
| 20260901150704 | 69 | 46 | 2.6 | 7.0 | 0.00 | 0.00 | 0.00 | 63 | 1017.7 |
| 20260901150204 | 69 | 75 | 2.6 | 7.8 | 0.00 | 0.00 | 0.00 | 66 | 1017.6 |
| 20260901144704 | 68 | 75 | 2.6 | 6.1 | 0.00 | 0.00 | 0.00 | 67 | 1017.5 |
| 20260901144204 | 68 | 45 | 2.6 | 6.1 | 0.00 | 0.00 | 0.00 | 68 | 1017.5 |
| 20260901142704 | 67 | 80 | 4.3 | 7.0 | 0.00 | 0.00 | 0.00 | 69 | 1017.6 |
| 20260901142204 | 67 | 86 | 2.6 | 7.8 | 0.00 | 0.00 | 0.00 | 69 | 1017.6 |
| 20260901140704 | 66 | 77 | 2.6 | 6.1 | 0.00 | 0.00 | 0.00 | 70 | 1017.6 |
| 20260901140204 | 66 | 75 | 3.5 | 7.0 | 0.00 | 0.00 | 0.00 | 70 | 1017.5 |
| 20260901134704 | 65 | 41 | 2.6 | 5.2 | 0.00 | 0.00 | 0.00 | 73 | 1017.6 |
| 20260901134204 | 64 | 77 | 3.5 | 7.8 | 0.00 | 0.00 | 0.00 | 73 | 1017.7 |
| 20260901132705 | 63 | 58 | 3.5 | 7.0 | 0.00 | 0.00 | 0.00 | 76 | 1017.8 |
| 20260901132204 | 62 | 53 | 1.7 | 5.2 | 0.00 | 0.00 | 0.00 | 78 | 1017.9 |
| 20260901130704 | 60 | 65 | 2.6 | 5.2 | 0.00 | 0.00 | 0.00 | 81 | 1018.0 |
| 20260901130204 | 59 | 38 | 2.6 | 5.2 | 0.00 | 0.00 | 0.00 | 80 | 1017.9 |
| 20260901124704 | 58 | 53 | 0.9 | 2.6 | 0.00 | 0.00 | 0.00 | 83 | 1017.9 |
| 20260901124204 | 58 | 51 | 2.6 | 4.3 | 0.00 | 0.00 | 0.00 | 83 | 1017.9 |
| 20260901122704 | 59 | 43 | 1.7 | 2.6 | 0.00 | 0.00 | 0.00 | 83 | 1017.9 |
| 20260901122204 | 58 | 48 | 1.7 | 4.3 | 0.00 | 0.00 | 0.00 | 84 | 1017.9 |
| 20260901120703 | 58 | 65 | 0.9 | 2.6 | 0.00 | 0.00 | 0.00 | 86 | 1018.1 |
| 20260901114704 | 56 | 65 | 0.9 | 2.6 | 0.00 | 0.00 | 0.00 | 87 | 1018.1 |
| 20260901114203 | 56 | 65 | 1.7 | 2.6 | 0.00 | 0.00 | 0.00 | 88 | 1018.1 |
| 20260901112704 | 55 | 65 | 0.0 | 1.7 | 0.00 | 0.00 | 0.00 | 91 | 1018.2 |
| 20260901112204 | 55 | 65 | 0.9 | 1.7 | 0.00 | 0.00 | 0.00 | 91 | 1018.2 |
| 20260901110704 | 54 | 65 | 0.0 | 0.0 | 0.00 | 0.00 | 0.00 | 91 | 1017.9 |
| 20260901110203 | 54 | 65 | 0.9 | 1.7 | 0.00 | 0.00 | 0.00 | 91 | 1017.8 |
| 20260901104704 | 53 | 65 | 0.9 | 1.7 | 0.00 | 0.01 | 0.00 | 91 | 1017.4 |
| 20260901102703 | 53 | 71 | 2.6 | 4.3 | 0.00 | 0.01 | 0.00 | 91 | 1017.5 |
| 20260901100704 | 53 | 70 | 0.9 | 2.6 | 0.00 | 0.01 | 0.00 | 91 | 1017.4 |
| 20260901100204 | 53 | 67 | 0.9 | 2.6 | 0.00 | 0.01 | 0.00 | 92 | 1017.3 |
| 20260901094704 | 53 | 67 | 1.7 | 2.6 | 0.00 | 0.01 | 0.00 | 92 | 1017.2 |
| 20260901094204 | 53 | 66 | 1.7 | 4.3 | 0.00 | 0.01 | 0.00 | 92 | 1017.2 |
| 20260901092704 | 52 | 114 | 1.7 | 2.6 | 0.00 | 0.01 | 0.00 | 92 | 1017.2 |
| 20260901092204 | 52 | 114 | 0.9 | 2.6 | 0.00 | 0.01 | 0.00 | 92 | 1017.1 |
| 20260901090704 | 52 | 114 | 0.9 | 2.6 | 0.00 | 0.01 | 0.00 | 91 | 1017.2 |
| 20260901084703 | 52 | 115 | 0.0 | 0.9 | 0.00 | 0.01 | 0.00 | 91 | 1017.5 |
| 20260901082703 | 53 | 115 | 0.0 | 0.0 | 0.00 | 0.01 | 0.00 | 90 | 1017.2 |
| 20260901082204 | 53 | 115 | 0.0 | 1.7 | 0.00 | 0.01 | 0.00 | 90 | 1017.2 |
| 20260901080703 | 53 | 115 | 0.0 | 0.9 | 0.00 | 0.01 | 0.00 | 91 | 1017.1 |
| 20260901080204 | 53 | 115 | 0.0 | 2.6 | 0.00 | 0.01 | 0.00 | 91 | 1017.1 |
| 20260901074705 | 53 | 115 | 1.7 | 2.6 | 0.00 | 0.01 | 0.00 | 92 | 1017.1 |
| 20260901074205 | 53 | 115 | 1.7 | 2.6 | 0.00 | 0.01 | 0.00 | 91 | 1017.1 |
| 20260901072705 | 53 | 115 | 0.0 | 0.0 | 0.00 | 0.01 | 0.00 | 91 | 1017.4 |
| 20260901072205 | 53 | 115 | 0.0 | 1.7 | 0.00 | 0.01 | 0.00 | 91 | 1017.4 |
| 20260901070706 | 53 | 115 | 0.0 | 0.9 | 0.00 | 0.01 | 0.00 | 91 | 1017.5 |
| 20260901064205 | 54 | 115 | 0.9 | 1.7 | 0.00 | 0.01 | 0.00 | 91 | 1017.7 |
| 20260901062205 | 54 | 115 | 0.9 | 0.9 | 0.00 | 0.01 | 0.00 | 90 | 1017.6 |
| 20260901060705 | 54 | 115 | 0.9 | 1.7 | 0.00 | 0.01 | 0.00 | 90 | 1017.5 |
| 20260901060205 | 54 | 115 | 0.9 | 1.7 | 0.00 | 0.01 | 0.00 | 89 | 1017.6 |
| 20260901054705 | 55 | 115 | 0.9 | 1.7 | 0.00 | 0.01 | 0.00 | 90 | 1017.7 |
| 20260901054205 | 55 | 115 | 0.9 | 1.7 | 0.00 | 0.01 | 0.00 | 89 | 1017.7 |
| 20260901052205 | 55 | 115 | 0.9 | 1.7 | 0.00 | 0.01 | 0.00 | 89 | 1017.6 |
| 20260901050705 | 55 | 115 | 0.9 | 1.7 | 0.00 | 0.01 | 0.00 | 89 | 1017.7 |
| 20260901050206 | 55 | 115 | 0.9 | 2.6 | 0.00 | 0.01 | 0.00 | 89 | 1017.7 |
| 20260901044705 | 56 | 111 | 1.7 | 2.6 | 0.00 | 0.01 | 0.00 | 88 | 1017.7 |
| 20260901044205 | 56 | 84 | 0.0 | 0.9 | 0.00 | 0.01 | 0.00 | 88 | 1017.7 |
| 20260901042205 | 57 | 84 | 0.0 | 0.9 | 0.00 | 0.01 | 0.00 | 87 | 1017.4 |
| 20260901040705 | 58 | 84 | 0.9 | 1.7 | 0.00 | 0.01 | 0.00 | 86 | 1017.2 |
| 20260901034705 | 59 | 84 | 0.9 | 1.7 | 0.00 | 0.01 | 0.01 | 84 | 1017.1 |
| 20260901034205 | 59 | 84 | 0.0 | 0.9 | 0.00 | 0.01 | 0.01 | 83 | 1017.2 |
| 20260901032705 | 60 | 84 | 0.0 | 0.9 | 0.00 | 0.01 | 0.01 | 83 | 1017.1 |
| 20260901032205 | 60 | 84 | 0.9 | 4.3 | 0.00 | 0.01 | 0.01 | 83 | 1017.0 |
| 20260901030704 | 60 | 95 | 0.9 | 2.6 | 0.00 | 0.01 | 0.01 | 87 | 1017.1 |
| 20260901030204 | 60 | 95 | 0.9 | 1.7 | 0.00 | 0.01 | 0.01 | 86 | 1017.1 |
| 20260901024705 | 61 | 95 | 0.0 | 0.0 | 0.00 | 0.01 | 0.01 | 85 | 1017.1 |
| 20260901022705 | 62 | 95 | 0.0 | 1.7 | 0.00 | 0.01 | 0.01 | 84 | 1017.1 |
| 20260901022205 | 62 | 95 | 0.9 | 4.3 | 0.00 | 0.01 | 0.01 | 84 | 1017.1 |
| 20260901020705 | 61 | 103 | 0.9 | 1.7 | 0.00 | 0.01 | 0.01 | 84 | 1017.2 |
| 20260901020205 | 61 | 103 | 0.0 | 1.7 | 0.00 | 0.01 | 0.01 | 83 | 1017.2 |
| 20260901014705 | 62 | 103 | 0.9 | 2.6 | 0.00 | 0.01 | 0.01 | 83 | 1017.3 |
| 20260901012705 | 62 | 104 | 0.0 | 0.9 | 0.00 | 0.01 | 0.01 | 84 | 1017.4 |
| 20260901012205 | 62 | 104 | 0.9 | 2.6 | 0.00 | 0.01 | 0.01 | 84 | 1017.4 |
| 20260901010705 | 62 | 113 | 1.7 | 2.6 | 0.00 | 0.01 | 0.01 | 82 | 1017.4 |
| 20260901010204 | 62 | 191 | 0.9 | 2.6 | 0.00 | 0.01 | 0.01 | 81 | 1017.4 |
| 20260901004704 | 62 | 191 | 0.9 | 2.6 | 0.00 | 0.01 | 0.01 | 80 | 1017.3 |
| 20260901004206 | 62 | 191 | 0.9 | 1.7 | 0.00 | 0.01 | 0.01 | 80 | 1017.3 |
| 20260901002704 | 62 | 193 | 0.9 | 0.9 | 0.00 | 0.01 | 0.01 | 79 | 1017.3 |
| 20260901002204 | 63 | 193 | 0.0 | 0.0 | 0.00 | 0.01 | 0.01 | 79 | 1017.1 |
| 20260901000704 | 64 | 193 | 0.0 | 0.0 | 0.00 | 0.01 | 0.01 | 76 | 1016.9 |
| 20260901000204 | 64 | 193 | 0.9 | 1.7 | 0.00 | 0.01 | 0.01 | 76 | 1017.0 |
| 20260831234705 | 65 | 193 | 0.0 | 0.0 | 0.00 | 0.01 | 0.01 | 73 | 1016.9 |
| 20260831234205 | 66 | 193 | 0.0 | 0.0 | 0.00 | 0.01 | 0.01 | 72 | 1017.0 |
| 20260831232705 | 67 | 193 | 0.0 | 0.0 | 0.00 | 0.01 | 0.01 | 69 | 1017.0 |
| 20260831232205 | 68 | 193 | 0.0 | 0.0 | 0.00 | 0.01 | 0.01 | 68 | 1017.0 |
| 20260831230705 | 69 | 193 | 0.0 | 0.0 | 0.00 | 0.01 | 0.01 | 63 | 1017.0 |
| 20260831224705 | 70 | 192 | 0.0 | 0.9 | 0.00 | 0.01 | 0.01 | 61 | 1017.1 |
| 20260831224205 | 70 | 192 | 1.7 | 2.6 | 0.00 | 0.01 | 0.01 | 61 | 1017.2 |
| 20260831222704 | 72 | 195 | 0.0 | 2.6 | 0.00 | 0.01 | 0.01 | 59 | 1017.3 |
| 20260831222205 | 72 | 202 | 1.7 | 2.6 | 0.00 | 0.01 | 0.01 | 58 | 1017.3 |
| 20260831220705 | 73 | 173 | 0.9 | 2.6 | 0.00 | 0.01 | 0.01 | 55 | 1017.4 |
| 20260831220204 | 73 | 173 | 1.7 | 2.6 | 0.00 | 0.01 | 0.01 | 55 | 1017.4 |
| 20260831212705 | 73 | 0 | 1.7 | 2.6 | 0.00 | 0.18 | 0.01 | 56 | 1017.5 |
| 20260831212205 | 73 | 273 | 1.7 | 6.1 | 0.00 | 0.18 | 0.01 | 55 | 1017.5 |